Regional Weather Roundup
Issued by NWS Boston, MA

Current Version | Previous Version | Text Only | Print | Product List | Glossary Off
Versions: 1 2 3 4 5 6 7 8 9 10 11 12 13 14 15 16 17 18 19 20 21 22 23 24 25 26 27 28 29 30 31 32 33 34 35 36 37 38 39 40 41 42 43 44 45 46 47 48 49 50
000 ASUS41 KBOX 261810 RWRBOX REGIONAL WEATHER ROUNDUP NATIONAL WEATHER SERVICE TAUNTON MA 200 PM EDT FRI MAY 26 2017 NOTE: "FAIR" INDICATES FEW OR NO CLOUDS BELOW 12,000 FEET WITH NO SIGNIFICANT WEATHER AND/OR OBSTRUCTIONS TO VISIBILITY. MAZALL-261900- EASTERN MASSACHUSETTS CITY SKY/WX TMP DP RH WIND PRES REMARKS BOSTON NOT AVBL BEVERLY CLOUDY 58 51 78 N14 29.52S LAWRENCE CLOUDY 60 51 72 N9 29.55R BEDFORD CLOUDY 57 49 74 W13 29.55R BLUE HILL N/A 56 49 77 NW9G20 29.54R NORWOOD CLOUDY 59 52 77 W14 29.55R MARSHFIELD CLOUDY 57 52 82 VRB7G14 29.53R PLYMOUTH CLOUDY 55 50 83 W10 29.55R TAUNTON LGT RAIN 57 50 77 W8 29.56R NEW BEDFORD LGT RAIN 54 52 93 W9 29.56R $$ MAZALL-261900- CAPE COD AND THE ISLANDS CITY SKY/WX TMP DP RH WIND PRES REMARKS FALMOUTH CLOUDY 54 52 94 MISG 29.55R HYANNIS CLOUDY 52 50 93 NW6 29.53R CHATHAM CLOUDY 53 51 93 NW12G20 29.53R PROVINCETOWN CLOUDY 52 49 89 NW20G26 29.53R NANTUCKET CLOUDY 56 48 74 W20G25 29.54R MARTHAS VNYRD LGT RAIN 56 52 86 W14 29.56R $$ MAZALL-261900- CENTRAL AND WESTERN MASSACHUSETTS CITY SKY/WX TMP DP RH WIND PRES REMARKS WORCESTER LGT RAIN 53 49 86 W8 29.57R 6HR MIN TEMP: 46; 6HR MAX TEMP: 53; 6HR PCP: 0.18; FITCHBURG LGT RAIN 56 52 86 N5 29.57R ORANGE LGT RAIN 55 53 93 NW6 29.57R SPRINGFIELD LGT RAIN 56 51 84 CALM 29.57S WESTFIELD CLOUDY 59 56 89 CALM 29.58R FOG NORTH ADAMS RAIN 55 54 96 W3 29.59R FOG PITTSFIELD LGT RAIN 55 52 89 W9 29.58R FOG $$ RIZALL-261900- RHODE ISLAND CITY SKY/WX TMP DP RH WIND PRES REMARKS PROVIDENCE LGT RAIN 57 53 86 NW8 29.59R 6HR MIN TEMP: 50; 6HR MAX TEMP: 57; 6HR PCP: 0.14; NEWPORT CLOUDY 56 52 86 NW12 29.58R BLOCK ISLAND CLOUDY 58 52 80 W14 29.60R SMITHFIELD LGT RAIN 54 52 93 VRB5 29.58R WESTERLY CLOUDY 59 54 83 SW7 29.59R $$ CTZALL-261900- CONNECTICUT CITY SKY/WX TMP DP RH WIND PRES REMARKS BRADLEY INTL CLOUDY 60 56 86 CALM 29.58R 6HR MIN TEMP: 52; 6HR MAX TEMP: 60; 6HR PCP: 0.07; HARTFORD CLOUDY 62 54 74 NW3 29.59R BRIDGEPORT CLOUDY 68 59 73 CALM 29.58S DANBURY CLOUDY 70 59 68 N9G16 29.60R GROTON CLOUDY 59 55 87 SW5 29.59R NEW HAVEN CLOUDY 61 55 81 S7 29.59R CHESTER PTSUNNY 64 55 72 NW6G13 29.59R MERIDEN PTSUNNY 66 55 67 NW9 29.58S WILLIMANTIC CLOUDY 57 54 89 W3 29.60R FOG OXFORD PTSUNNY 66 55 68 NW12 29.60R $$ MEZ002-015-021-024-NHZ003-005-008-011-012-014-VTZ005-008-261900- NORTHERN NEW ENGLAND CITY SKY/WX TMP DP RH WIND PRES REMARKS PORTLAND ME LGT RAIN 53 50 89 N8 29.53R FOG 6HR MIN TEMP: 49; 6HR MAX TEMP: 53; 6HR PCP: 0.13; BANGOR ME DRIZZLE 52 50 93 NE14 29.56F FOG CONCORD NH CLOUDY 59 50 72 W9 29.55R MANCHESTER NH CLOUDY 58 47 66 W9 29.54R NASHUA NH LGT RAIN 57 51 80 NW10 29.56R PORTSMOUTH NH CLOUDY 55 52 88 N13 29.52R JAFFREY NH LGT RAIN 53 52 96 VRB3 29.57R KEENE NH LGT RAIN 54 51 90 CALM 29.57S BURLINGTON VT LGT RAIN 56 54 93 NW12 29.59S MT. WASHINGTON FOG 41 41 100 NW6 N/A VSB 1/16 $$ NYZ052-076-261900- EASTERN NEW YORK CITY SKY/WX TMP DP RH WIND PRES REMARKS ALBANY CLOUDY 58 55 90 E7 29.58S 6HR MIN TEMP: 54; 6HR MAX TEMP: 59; 6HR PCP: 0.02; NEW YORK CITY PTSUNNY 76 53 44 W15G24 29.58R 6HR MIN TEMP: 58; 6HR MAX TEMP: 76; $$ ANZALL-261900- MARINE OBSERVATIONS STATION/POSITION TIME TEMP WIND PRES VSBY WAVE AIR SEA DIR/SP/G HT/PER (UTC) (F) (DEG/KT/KT) (MB) (MI) (FT/S) BOSTON BUOY 1650 51 53 320/ 12/ 16 998.5 6/ 8 BUZZARDS BAY 1700 53 300/ 14/ 15 1001.4R NANTUCKET SOUND 1650 55 998.8 3/ 4 MASS BAY-STELLWA 1704 50 50 340/ 17/ 21 998.3R 6/ 8 ISLE OF SHOALS 1700 48 10/ 17/ 18 999.1R S OF BLOCK IS 1755 53 N/A 8/10 $$ ......................KEY......................... SKY/WX - SKY CONDITION/PRESENT WEATHER TMP - TEMPERATURE IN FAHRENHEIT DWPT - DEWPOINT IN FAHRENHEIT RH - RELATIVE HUMIDITY IN PERCENT WIND - DIRECTION AND SPEED IN MPH PRES - MEAN SEA LEVEL PRESSURE IN INCHES OF HG WCI - WIND CHILL INDEX VSB - VISIBILITY IN MILES HX - HEAT INDEX TC - TEMPERATURE IN CELSIUS VRB - VARIABLE WIND DIRECTION N/A - NOT AVAILABLE

USA.gov is the U.S. government's official web portal to all federal, state and local government web resources and services.